Location: Newark
(52.3735°N, 16.9806°E)
Time: 09:32:47
(UTC+00:00)

X-37B - Pass Details

Date: 30 September 2021
Orbit: 385 x 389 km, 45.0° (Epoch: 13 October)

Event Time Altitude Azimuth Distance (km) Brightness Sun altitude
Exits shadow 03:39:22 15° 222° (SW) 1,159 2.5 -11.8°
Maximum altitude 03:40:35 18° 193° (SSW) 1,035 2.5 -11.6°
Drops below altitude 10° 03:42:50 10° 148° (SSE) 1,412 3.7 -11.3°
Sets 03:45:19 0° 128° (SE) 2,266 5.1 -10.9°
